sat.trackr.live / text

‹ back to catalog

STARLINK-3157

NORAD 49413 · 2021-104F

PAYLOAD ACTIVE UNKNOWN

§ Identity

Operator
Country
US
Launch date
2021-11-13
Launch site
AFETR
Launch vehicle
Mass (kg)
RCS (m²)

Purposes: comms

External: N2YO · Heavens-Above · Gunter

§ Orbital elements

Epoch: 2026-09-12T22:45:31.125024Z

Period
93.90 min
Inclination
53.1592°
Eccentricity
0.0001138
Mean motion
15.33552303 rev/d
Perigee alt
464.4 km
Apogee alt
466.0 km
Semi-major
6,843.4 km
B*
2.3169e-5
RAAN
87.1207°
Arg perigee
80.9029°
Mean anomaly
279.2102°
Rev number
26,719

§ Raw data

STARLINK-31571 49413U 21104F   26255.94827691  .00000389  00000+0  23169-4 0  99992 49413  53.1592  87.1207 0001138  80.9029 279.2102 15.33552303267192

JSON: /api/v1/satellites/49413 · /tle

For live sub-satellite position, see the globe view (requires WebGL).

§ Visibility from observer

Set your observer location to see the next 7 days of passes ≥ 10°. The values pass through the URL so the page stays shareable.

No JS? Fill the form by hand. The geolocation button needs JavaScript.